{"data":{"norad_id":55937,"epoch":"2026-05-25T02:14:39.231168Z","epoch_age_seconds":70426,"freshness":"FRESH","line1":"1 55937U 23037Z   26145.09350962 -.00000098  00000+0 -38626-6 0  9995","line2":"2 55937  69.9998  91.8625 0003339 266.4426  93.6351 14.98331141175421","mean_motion":14.98331141,"eccentricity":0.0003339,"inclination_deg":69.9998,"raan_deg":91.8625,"arg_perigee_deg":266.4426,"mean_anomaly_deg":93.6351,"bstar":-3.8626e-7,"rev_number":17542,"period_min":96.106925938877,"perigee_km":569.73169427014,"apogee_km":574.37303072641,"semimajor_km":6950.1893624983,"source":"CELESTRAK","updated_at":"2026-05-25T13:38:17.915077Z"}}